Year,Month,Day,Hour,Minute,Value (Times are PST for temperature in C)
2013,04,01,00,00,7.40
2013,04,01,00,01,7.40
2013,04,01,00,02,7.40
2013,04,01,00,03,7.40
2013,04,01,00,04,7.40
2013,04,01,00,05,7.40
2013,04,01,00,06,7.40
2013,04,01,00,07,7.40
2013,04,01,00,08,7.40
2013,04,01,00,09,7.40
2013,04,01,00,10,7.40
2013,04,01,00,11,7.40
2013,04,01,00,12,7.40
2013,04,01,00,13,7.30
2013,04,01,00,14,7.30
2013,04,01,00,15,7.30
2013,04,01,00,16,7.30
2013,04,01,00,17,7.30
2013,04,01,00,18,7.30
2013,04,01,00,19,7.30
2013,04,01,00,20,7.30
2013,04,01,00,21,7.30
2013,04,01,00,22,7.30
2013,04,01,00,23,7.30
2013,04,01,00,24,7.20
2013,04,01,00,25,7.20
2013,04,01,00,26,7.20
2013,04,01,00,27,7.20
2013,04,01,00,28,7.20
2013,04,01,00,29,7.20
2013,04,01,00,30,7.20
2013,04,01,00,31,7.20
2013,04,01,00,32,7.20
2013,04,01,00,33,7.20
2013,04,01,00,34,7.20
2013,04,01,00,35,7.20
2013,04,01,00,36,7.20
2013,04,01,00,37,7.20
2013,04,01,00,38,7.20
2013,04,01,00,39,7.20
2013,04,01,00,40,7.20
2013,04,01,00,41,7.20
2013,04,01,00,42,7.20
2013,04,01,00,43,7.20
2013,04,01,00,44,7.10
2013,04,01,00,45,7.10
2013,04,01,00,46,7.10
2013,04,01,00,47,7.10
2013,04,01,00,48,7.10
2013,04,01,00,49,7.10
2013,04,01,00,50,7.10
2013,04,01,00,51,7.10
2013,04,01,00,52,7.10
2013,04,01,00,53,7.10
2013,04,01,00,54,7.10
2013,04,01,00,55,7.10
2013,04,01,00,56,7.10
2013,04,01,00,57,7.10
2013,04,01,00,58,7.10
2013,04,01,00,59,7.10
2013,04,01,01,00,7.00
2013,04,01,01,01,7.00
2013,04,01,01,02,7.00
2013,04,01,01,03,7.00
2013,04,01,01,04,7.00
2013,04,01,01,05,7.00
2013,04,01,01,06,7.00
2013,04,01,01,07,7.00
2013,04,01,01,08,6.90
2013,04,01,01,09,6.90
2013,04,01,01,10,6.90
2013,04,01,01,11,6.90
2013,04,01,01,12,6.90
2013,04,01,01,13,6.90
2013,04,01,01,14,6.80
2013,04,01,01,15,6.80
2013,04,01,01,16,6.80
2013,04,01,01,17,6.80
2013,04,01,01,18,6.80
2013,04,01,01,19,6.80
2013,04,01,01,20,6.80
2013,04,01,01,21,6.80
2013,04,01,01,22,6.80
2013,04,01,01,23,6.70
2013,04,01,01,24,6.70
2013,04,01,01,25,6.70
2013,04,01,01,26,6.70
2013,04,01,01,27,6.70
2013,04,01,01,28,6.70
2013,04,01,01,29,6.70
2013,04,01,01,30,6.70
2013,04,01,01,31,6.70
2013,04,01,01,32,6.60
2013,04,01,01,33,6.60
2013,04,01,01,34,6.60
2013,04,01,01,35,6.60
2013,04,01,01,36,6.60
2013,04,01,01,37,6.60
2013,04,01,01,38,6.60
2013,04,01,01,39,6.60
2013,04,01,01,40,6.60
2013,04,01,01,41,6.50
2013,04,01,01,42,6.50
2013,04,01,01,43,6.50
2013,04,01,01,44,6.50
2013,04,01,01,45,6.50
2013,04,01,01,46,6.50
2013,04,01,01,47,6.50
2013,04,01,01,48,6.50
2013,04,01,01,49,6.50
2013,04,01,01,50,6.50
2013,04,01,01,51,6.50
2013,04,01,01,52,6.50
2013,04,01,01,53,6.50
2013,04,01,01,54,6.50
2013,04,01,01,55,6.50
2013,04,01,01,56,6.50
2013,04,01,01,57,6.50
2013,04,01,01,58,6.40
2013,04,01,01,59,6.40
2013,04,01,02,00,6.40
2013,04,01,02,01,6.40
2013,04,01,02,02,6.40
2013,04,01,02,03,6.40
2013,04,01,02,04,6.40
2013,04,01,02,05,6.40
2013,04,01,02,06,6.40
2013,04,01,02,07,6.40
2013,04,01,02,08,6.40
2013,04,01,02,09,6.40
2013,04,01,02,10,6.40
2013,04,01,02,11,6.40
2013,04,01,02,12,6.40
2013,04,01,02,13,6.40
2013,04,01,02,14,6.40
2013,04,01,02,15,6.40
2013,04,01,02,16,6.40
2013,04,01,02,17,6.30
2013,04,01,02,18,6.30
2013,04,01,02,19,6.30
2013,04,01,02,20,6.30
2013,04,01,02,21,6.30
2013,04,01,02,22,6.30
2013,04,01,02,23,6.30
2013,04,01,02,24,6.30
2013,04,01,02,25,6.30
2013,04,01,02,26,6.30
2013,04,01,02,27,6.30
2013,04,01,02,28,6.30
2013,04,01,02,29,6.30
2013,04,01,02,30,6.30
2013,04,01,02,31,6.30
2013,04,01,02,32,6.30
2013,04,01,02,33,6.30
2013,04,01,02,34,6.30
2013,04,01,02,35,6.30
2013,04,01,02,36,6.30
2013,04,01,02,37,6.30
2013,04,01,02,38,6.30
2013,04,01,02,39,6.30
2013,04,01,02,40,6.30
2013,04,01,02,41,6.20
2013,04,01,02,42,6.20
2013,04,01,02,43,6.20
2013,04,01,02,44,6.20
2013,04,01,02,45,6.20
2013,04,01,02,46,6.20
2013,04,01,02,47,6.20
2013,04,01,02,48,6.20
2013,04,01,02,49,6.20
2013,04,01,02,50,6.20
2013,04,01,02,51,6.20
2013,04,01,02,52,6.20
2013,04,01,02,53,6.20
2013,04,01,02,54,6.20
2013,04,01,02,55,6.20
2013,04,01,02,56,6.10
2013,04,01,02,57,6.10
2013,04,01,02,58,6.10
2013,04,01,02,59,6.10
2013,04,01,03,00,6.10
2013,04,01,03,01,6.10
2013,04,01,03,02,6.10
2013,04,01,03,03,6.10
2013,04,01,03,04,6.10
2013,04,01,03,05,6.00
2013,04,01,03,06,6.00
2013,04,01,03,07,6.00
2013,04,01,03,08,6.00
2013,04,01,03,09,6.00
2013,04,01,03,10,5.90
2013,04,01,03,11,5.90
2013,04,01,03,12,5.90
2013,04,01,03,13,5.90
2013,04,01,03,14,5.90
2013,04,01,03,15,5.90
2013,04,01,03,16,5.90
2013,04,01,03,17,5.90
2013,04,01,03,18,5.90
2013,04,01,03,19,5.90
2013,04,01,03,20,5.90
2013,04,01,03,21,5.90
2013,04,01,03,22,5.90
2013,04,01,03,23,5.90
2013,04,01,03,24,5.90
2013,04,01,03,25,5.90
2013,04,01,03,26,5.90
2013,04,01,03,27,5.90
2013,04,01,03,28,5.80
2013,04,01,03,29,5.80
2013,04,01,03,30,5.80
2013,04,01,03,31,5.80
2013,04,01,03,32,5.80
2013,04,01,03,33,5.80
2013,04,01,03,34,5.80
2013,04,01,03,35,5.80
2013,04,01,03,36,5.80
2013,04,01,03,37,5.80
2013,04,01,03,38,5.80
2013,04,01,03,39,5.80
2013,04,01,03,40,5.80
2013,04,01,03,41,5.80
2013,04,01,03,42,5.80
2013,04,01,03,43,5.80
2013,04,01,03,44,5.80
2013,04,01,03,45,5.80
2013,04,01,03,46,5.80
2013,04,01,03,47,5.70
2013,04,01,03,48,5.70
2013,04,01,03,49,5.70
2013,04,01,03,50,5.70
2013,04,01,03,51,5.70
2013,04,01,03,52,5.70
2013,04,01,03,53,5.70
2013,04,01,03,54,5.70
2013,04,01,03,55,5.70
2013,04,01,03,56,5.70
2013,04,01,03,57,5.70
2013,04,01,03,58,5.70
2013,04,01,03,59,5.70
2013,04,01,04,00,5.70
2013,04,01,04,01,5.70
2013,04,01,04,02,5.70
2013,04,01,04,03,5.70
2013,04,01,04,04,5.70
2013,04,01,04,05,5.70
2013,04,01,04,06,5.60
2013,04,01,04,07,5.60
2013,04,01,04,08,5.60
2013,04,01,04,09,5.60
2013,04,01,04,10,5.60
2013,04,01,04,11,5.60
2013,04,01,04,12,5.60
2013,04,01,04,13,5.60
2013,04,01,04,14,5.60
2013,04,01,04,15,5.60
2013,04,01,04,16,5.60
2013,04,01,04,17,5.60
2013,04,01,04,18,5.60
2013,04,01,04,19,5.60
2013,04,01,04,20,5.60
2013,04,01,04,21,5.60
2013,04,01,04,22,5.60
2013,04,01,04,23,5.50
2013,04,01,04,24,5.50
2013,04,01,04,25,5.50
2013,04,01,04,26,5.50
2013,04,01,04,27,5.50
2013,04,01,04,28,5.50
2013,04,01,04,29,5.50
2013,04,01,04,30,5.50
2013,04,01,04,31,5.50
2013,04,01,04,32,5.50
2013,04,01,04,33,5.50
2013,04,01,04,34,5.50
2013,04,01,04,35,5.50
2013,04,01,04,36,5.40
2013,04,01,04,37,5.40
2013,04,01,04,38,5.40
2013,04,01,04,39,5.40
2013,04,01,04,40,5.40
2013,04,01,04,41,5.40
2013,04,01,04,42,5.40
2013,04,01,04,43,5.40
2013,04,01,04,44,5.40
2013,04,01,04,45,5.30
2013,04,01,04,46,5.30
2013,04,01,04,47,5.30
2013,04,01,04,48,5.30
2013,04,01,04,49,5.30
2013,04,01,04,50,5.30
2013,04,01,04,51,5.30
2013,04,01,04,52,5.30
2013,04,01,04,53,5.20
2013,04,01,04,54,5.20
2013,04,01,04,55,5.20
2013,04,01,04,56,5.20
2013,04,01,04,57,5.20
2013,04,01,04,58,5.20
2013,04,01,04,59,5.20
2013,04,01,05,00,5.20
2013,04,01,05,01,5.20
2013,04,01,05,02,5.20
2013,04,01,05,03,5.20
2013,04,01,05,04,5.20
2013,04,01,05,05,5.20
2013,04,01,05,06,5.10
2013,04,01,05,07,5.10
2013,04,01,05,08,5.10
2013,04,01,05,09,5.10
2013,04,01,05,10,5.10
2013,04,01,05,11,5.10
2013,04,01,05,12,5.10
2013,04,01,05,13,5.10
2013,04,01,05,14,5.10
2013,04,01,05,15,5.00
2013,04,01,05,16,5.00
2013,04,01,05,17,5.00
2013,04,01,05,18,5.00
2013,04,01,05,19,5.00
2013,04,01,05,20,4.90
2013,04,01,05,21,4.90
2013,04,01,05,22,4.90
2013,04,01,05,23,4.90
2013,04,01,05,24,4.90
2013,04,01,05,25,4.90
2013,04,01,05,26,4.90
2013,04,01,05,27,4.90
2013,04,01,05,28,4.90
2013,04,01,05,29,4.80
2013,04,01,05,30,4.80
2013,04,01,05,31,4.80
2013,04,01,05,32,4.80
2013,04,01,05,33,4.80
2013,04,01,05,34,4.80
2013,04,01,05,35,4.80
2013,04,01,05,36,4.80
2013,04,01,05,37,4.80
2013,04,01,05,38,4.80
2013,04,01,05,39,4.80
2013,04,01,05,40,4.80
2013,04,01,05,41,4.80
2013,04,01,05,42,4.80
2013,04,01,05,43,4.70
2013,04,01,05,44,4.70
2013,04,01,05,45,4.70
2013,04,01,05,46,4.70
2013,04,01,05,47,4.70
2013,04,01,05,48,4.70
2013,04,01,05,49,4.70
2013,04,01,05,50,4.70
2013,04,01,05,51,4.70
2013,04,01,05,52,4.70
2013,04,01,05,53,4.70
2013,04,01,05,54,4.70
2013,04,01,05,55,4.70
2013,04,01,05,56,4.70
2013,04,01,05,57,4.70
2013,04,01,05,58,4.70
2013,04,01,05,59,4.70
2013,04,01,06,00,4.70
2013,04,01,06,01,4.70
2013,04,01,06,02,4.70
2013,04,01,06,03,4.70
2013,04,01,06,04,4.70
2013,04,01,06,05,4.70
2013,04,01,06,06,4.70
2013,04,01,06,07,4.70
2013,04,01,06,08,4.60
2013,04,01,06,09,4.60
2013,04,01,06,10,4.60
2013,04,01,06,11,4.60
2013,04,01,06,12,4.60
2013,04,01,06,13,4.60
2013,04,01,06,14,4.60
2013,04,01,06,15,4.60
2013,04,01,06,16,4.60
2013,04,01,06,17,4.60
2013,04,01,06,18,4.60
2013,04,01,06,19,4.60
2013,04,01,06,20,4.60
2013,04,01,06,21,4.60
2013,04,01,06,22,4.60
2013,04,01,06,23,4.60
2013,04,01,06,24,4.60
2013,04,01,06,25,4.60
2013,04,01,06,26,4.60
2013,04,01,06,27,4.60
2013,04,01,06,28,4.60
2013,04,01,06,29,4.60
2013,04,01,06,30,4.60
2013,04,01,06,31,4.60
2013,04,01,06,32,4.60
2013,04,01,06,33,4.60
2013,04,01,06,34,4.60
2013,04,01,06,35,4.60
2013,04,01,06,36,4.60
2013,04,01,06,37,4.60
2013,04,01,06,38,4.60
2013,04,01,06,39,4.60
2013,04,01,06,40,4.60
2013,04,01,06,41,4.60
2013,04,01,06,42,4.60
2013,04,01,06,43,4.60
2013,04,01,06,44,4.60
2013,04,01,06,45,4.60
2013,04,01,06,46,4.60
2013,04,01,06,47,4.60
2013,04,01,06,48,4.60
2013,04,01,06,49,4.60
2013,04,01,06,50,4.60
2013,04,01,06,51,4.60
2013,04,01,06,52,4.60
2013,04,01,06,53,4.60
2013,04,01,06,54,4.60
2013,04,01,06,55,4.60
2013,04,01,06,56,4.60
2013,04,01,06,57,4.60
2013,04,01,06,58,4.60
2013,04,01,06,59,4.60
2013,04,01,07,00,4.60
2013,04,01,07,01,4.60
2013,04,01,07,02,4.60
2013,04,01,07,03,4.60
2013,04,01,07,04,4.60
2013,04,01,07,05,4.60
2013,04,01,07,06,4.60
2013,04,01,07,07,4.60
2013,04,01,07,08,4.50
2013,04,01,07,09,4.50
2013,04,01,07,10,4.50
2013,04,01,07,11,4.50
2013,04,01,07,12,4.50
2013,04,01,07,13,4.50
2013,04,01,07,14,4.40
2013,04,01,07,15,4.40
2013,04,01,07,16,4.40
2013,04,01,07,17,4.40
2013,04,01,07,18,4.40
2013,04,01,07,19,4.40
2013,04,01,07,20,4.40
2013,04,01,07,21,4.30
2013,04,01,07,22,4.30
2013,04,01,07,23,4.30
2013,04,01,07,24,4.30
2013,04,01,07,25,4.30
2013,04,01,07,26,4.30
2013,04,01,07,27,4.30
2013,04,01,07,28,4.30
2013,04,01,07,29,4.30
2013,04,01,07,30,4.30
2013,04,01,07,31,4.30
2013,04,01,07,32,4.30
2013,04,01,07,33,4.30
2013,04,01,07,34,4.30
2013,04,01,07,35,4.30
2013,04,01,07,36,4.30
2013,04,01,07,37,4.20
2013,04,01,07,38,4.20
2013,04,01,07,39,4.20
2013,04,01,07,40,4.20
2013,04,01,07,41,4.20
2013,04,01,07,42,4.30
2013,04,01,07,43,4.30
2013,04,01,07,44,4.30
2013,04,01,07,45,4.30
2013,04,01,07,46,4.30
2013,04,01,07,47,4.30
2013,04,01,07,48,4.40
2013,04,01,07,49,4.40
2013,04,01,07,50,4.40
2013,04,01,07,51,4.40
2013,04,01,07,52,4.40
2013,04,01,07,53,4.40
2013,04,01,07,54,4.50
2013,04,01,07,55,4.50
2013,04,01,07,56,4.50
2013,04,01,07,57,4.50
2013,04,01,07,58,4.60
2013,04,01,07,59,4.60
2013,04,01,08,00,4.60
2013,04,01,08,01,4.60
2013,04,01,08,02,4.70
2013,04,01,08,03,4.70
2013,04,01,08,04,4.70
2013,04,01,08,05,4.70
2013,04,01,08,06,4.70
2013,04,01,08,07,4.70
2013,04,01,08,08,4.80
2013,04,01,08,09,4.80
2013,04,01,08,10,4.80
2013,04,01,08,11,4.80
2013,04,01,08,12,4.80
2013,04,01,08,13,4.80
2013,04,01,08,14,4.80
2013,04,01,08,15,4.90
2013,04,01,08,16,4.90
2013,04,01,08,17,4.90
2013,04,01,08,18,4.90
2013,04,01,08,19,5.00
2013,04,01,08,20,5.00
2013,04,01,08,21,5.00
2013,04,01,08,22,5.10
2013,04,01,08,23,5.10
2013,04,01,08,24,5.10
2013,04,01,08,25,5.20
2013,04,01,08,26,5.20
2013,04,01,08,27,5.20
2013,04,01,08,28,5.30
2013,04,01,08,29,5.30
2013,04,01,08,30,5.30
2013,04,01,08,31,5.40
2013,04,01,08,32,5.40
2013,04,01,08,33,5.40
2013,04,01,08,34,5.50
2013,04,01,08,35,5.50
2013,04,01,08,36,5.60
2013,04,01,08,37,5.60
2013,04,01,08,38,5.70
2013,04,01,08,39,5.70
2013,04,01,08,40,5.70
2013,04,01,08,41,5.80
2013,04,01,08,42,5.80
2013,04,01,08,43,5.90
2013,04,01,08,44,6.00
2013,04,01,08,45,6.10
2013,04,01,08,46,6.10
2013,04,01,08,47,6.20
2013,04,01,08,48,6.30
2013,04,01,08,49,6.30
2013,04,01,08,50,6.40
2013,04,01,08,51,6.50
2013,04,01,08,52,6.60
2013,04,01,08,53,6.70
2013,04,01,08,54,6.70
2013,04,01,08,55,6.80
2013,04,01,08,56,6.90
2013,04,01,08,57,6.90
2013,04,01,08,58,7.00
2013,04,01,08,59,7.10
2013,04,01,09,00,7.10
2013,04,01,09,01,7.20
2013,04,01,09,02,7.20
2013,04,01,09,03,7.30
2013,04,01,09,04,7.30
2013,04,01,09,05,7.40
2013,04,01,09,06,7.40
2013,04,01,09,07,7.50
2013,04,01,09,08,7.60
2013,04,01,09,09,7.60
2013,04,01,09,10,7.70
2013,04,01,09,11,7.80
2013,04,01,09,12,7.90
2013,04,01,09,13,7.90
2013,04,01,09,14,8.00
2013,04,01,09,15,8.10
2013,04,01,09,16,8.10
2013,04,01,09,17,8.20
2013,04,01,09,18,8.30
2013,04,01,09,19,8.40
2013,04,01,09,20,8.50
2013,04,01,09,21,8.50
2013,04,01,09,22,8.60
2013,04,01,09,23,8.70
2013,04,01,09,24,8.70
2013,04,01,09,25,8.80
2013,04,01,09,26,8.90
2013,04,01,09,27,8.90
2013,04,01,09,28,9.00
2013,04,01,09,29,9.10
2013,04,01,09,30,9.20
2013,04,01,09,31,9.30
2013,04,01,09,32,9.40
2013,04,01,09,33,9.50
2013,04,01,09,34,9.60
2013,04,01,09,35,9.60
2013,04,01,09,36,9.70
2013,04,01,09,37,9.80
2013,04,01,09,38,9.90
2013,04,01,09,39,9.90
2013,04,01,09,40,10.00
2013,04,01,09,41,10.10
2013,04,01,09,42,10.10
2013,04,01,09,43,10.20
2013,04,01,09,44,10.20
2013,04,01,09,45,10.30
2013,04,01,09,46,10.30
2013,04,01,09,47,10.40
2013,04,01,09,48,10.40
2013,04,01,09,49,10.50
2013,04,01,09,50,10.60
2013,04,01,09,51,10.70
2013,04,01,09,52,10.70
2013,04,01,09,53,10.70
2013,04,01,09,54,10.80
2013,04,01,09,55,10.80
2013,04,01,09,56,10.80
2013,04,01,09,57,10.90
2013,04,01,09,58,10.90
2013,04,01,09,59,11.00
2013,04,01,10,00,11.00
2013,04,01,10,01,11.10
2013,04,01,10,02,11.10
2013,04,01,10,03,11.10
2013,04,01,10,04,11.10
2013,04,01,10,05,11.10
2013,04,01,10,06,11.10
2013,04,01,10,07,11.10
2013,04,01,10,08,11.10
2013,04,01,10,09,11.10
2013,04,01,10,10,11.10
2013,04,01,10,11,11.10
2013,04,01,10,12,11.10
2013,04,01,10,13,11.10
2013,04,01,10,14,11.20
2013,04,01,10,15,11.20
2013,04,01,10,16,11.20
2013,04,01,10,17,11.20
2013,04,01,10,18,11.30
2013,04,01,10,19,11.30
2013,04,01,10,20,11.30
2013,04,01,10,21,11.40
2013,04,01,10,22,11.40
2013,04,01,10,23,11.40
2013,04,01,10,24,11.50
2013,04,01,10,25,11.50
2013,04,01,10,26,11.50
2013,04,01,10,27,11.50
2013,04,01,10,28,11.60
2013,04,01,10,29,11.60
2013,04,01,10,30,11.60
2013,04,01,10,31,11.60
2013,04,01,10,32,11.60
2013,04,01,10,33,11.60
2013,04,01,10,34,11.70
2013,04,01,10,35,11.70
2013,04,01,10,36,11.70
2013,04,01,10,37,11.80
2013,04,01,10,38,11.80
2013,04,01,10,39,11.80
2013,04,01,10,40,11.90
2013,04,01,10,41,11.90
2013,04,01,10,42,11.90
2013,04,01,10,43,12.00
2013,04,01,10,44,12.00
2013,04,01,10,45,12.10
2013,04,01,10,46,12.10
2013,04,01,10,47,12.10
2013,04,01,10,48,12.10
2013,04,01,10,49,12.10
2013,04,01,10,50,12.10
2013,04,01,10,51,12.10
2013,04,01,10,52,12.10
2013,04,01,10,53,12.10
2013,04,01,10,54,12.10
2013,04,01,10,55,12.20
2013,04,01,10,56,12.20
2013,04,01,10,57,12.20
2013,04,01,10,58,12.20
2013,04,01,10,59,12.20
2013,04,01,11,00,12.30
2013,04,01,11,01,12.30
2013,04,01,11,02,12.30
2013,04,01,11,03,12.30
2013,04,01,11,04,12.30
2013,04,01,11,05,12.40
2013,04,01,11,06,12.40
2013,04,01,11,07,12.40
2013,04,01,11,08,12.40
2013,04,01,11,09,12.50
2013,04,01,11,10,12.50
2013,04,01,11,11,12.60
2013,04,01,11,12,12.60
2013,04,01,11,13,12.60
2013,04,01,11,14,12.70
2013,04,01,11,15,12.70
2013,04,01,11,16,12.70
2013,04,01,11,17,12.60
2013,04,01,11,18,12.60
2013,04,01,11,19,12.60
2013,04,01,11,20,12.60
2013,04,01,11,21,12.70
2013,04,01,11,22,12.70
2013,04,01,11,23,12.70
2013,04,01,11,24,12.80
2013,04,01,11,25,12.80
2013,04,01,11,26,12.80
2013,04,01,11,27,12.80
2013,04,01,11,28,12.80
2013,04,01,11,29,12.80
2013,04,01,11,30,12.80
2013,04,01,11,31,12.80
2013,04,01,11,32,12.90
2013,04,01,11,33,12.90
2013,04,01,11,34,12.90
2013,04,01,11,35,12.90
2013,04,01,11,36,12.90
2013,04,01,11,37,12.90
2013,04,01,11,38,13.00
2013,04,01,11,39,13.00
2013,04,01,11,40,13.10
2013,04,01,11,41,13.10
2013,04,01,11,42,13.10
2013,04,01,11,43,13.10
2013,04,01,11,44,13.20
2013,04,01,11,45,13.20
2013,04,01,11,46,13.20
2013,04,01,11,47,13.30
2013,04,01,11,48,13.30
2013,04,01,11,49,13.30
2013,04,01,11,50,13.30
2013,04,01,11,51,13.40
2013,04,01,11,52,13.40
2013,04,01,11,53,13.40
2013,04,01,11,54,13.40
2013,04,01,11,55,13.50
2013,04,01,11,56,13.50
2013,04,01,11,57,13.60
2013,04,01,11,58,13.60
2013,04,01,11,59,13.70
2013,04,01,12,00,13.70
2013,04,01,12,01,13.70
2013,04,01,12,02,13.80
2013,04,01,12,03,13.80
2013,04,01,12,04,13.80
2013,04,01,12,05,13.80
2013,04,01,12,06,13.80
2013,04,01,12,07,13.80
2013,04,01,12,08,13.80
2013,04,01,12,09,13.80
2013,04,01,12,10,13.80
2013,04,01,12,11,13.90
2013,04,01,12,12,14.00
2013,04,01,12,13,14.10
2013,04,01,12,14,14.20
2013,04,01,12,15,14.30
2013,04,01,12,16,14.40
2013,04,01,12,17,14.40
2013,04,01,12,18,14.50
2013,04,01,12,19,14.50
2013,04,01,12,20,14.50
2013,04,01,12,21,14.60
2013,04,01,12,22,14.60
2013,04,01,12,23,14.60
2013,04,01,12,24,14.60
2013,04,01,12,25,14.60
2013,04,01,12,26,14.60
2013,04,01,12,27,14.60
2013,04,01,12,28,14.70
2013,04,01,12,29,14.70
2013,04,01,12,30,14.80
2013,04,01,12,31,14.80
2013,04,01,12,32,14.80
2013,04,01,12,33,14.80
2013,04,01,12,34,14.90
2013,04,01,12,35,14.90
2013,04,01,12,36,14.80
2013,04,01,12,37,14.80
2013,04,01,12,38,14.80
2013,04,01,12,39,14.80
2013,04,01,12,40,14.90
2013,04,01,12,41,15.00
2013,04,01,12,42,15.00
2013,04,01,12,43,15.00
2013,04,01,12,44,15.00
2013,04,01,12,45,15.00
2013,04,01,12,46,15.00
2013,04,01,12,47,15.00
2013,04,01,12,48,15.00
2013,04,01,12,49,15.10
2013,04,01,12,50,15.10
2013,04,01,12,51,15.10
2013,04,01,12,52,15.20
2013,04,01,12,53,15.20
2013,04,01,12,54,15.30
2013,04,01,12,55,15.30
2013,04,01,12,56,15.20
2013,04,01,12,57,15.10
2013,04,01,12,58,15.00
2013,04,01,12,59,15.00
2013,04,01,13,00,15.00
2013,04,01,13,01,15.10
2013,04,01,13,02,15.20
2013,04,01,13,03,15.20
2013,04,01,13,04,15.20
2013,04,01,13,05,15.20
2013,04,01,13,06,15.20
2013,04,01,13,07,15.30
2013,04,01,13,08,15.40
2013,04,01,13,09,15.40
2013,04,01,13,10,15.40
2013,04,01,13,11,15.40
2013,04,01,13,12,15.40
2013,04,01,13,13,15.40
2013,04,01,13,14,15.30
2013,04,01,13,15,15.20
2013,04,01,13,16,15.20
2013,04,01,13,17,15.20
2013,04,01,13,18,15.20
2013,04,01,13,19,15.20
2013,04,01,13,20,15.20
2013,04,01,13,21,15.20
2013,04,01,13,22,15.20
2013,04,01,13,23,15.20
2013,04,01,13,24,15.20
2013,04,01,13,25,15.10
2013,04,01,13,26,15.10
2013,04,01,13,27,15.10
2013,04,01,13,28,15.10
2013,04,01,13,29,15.20
2013,04,01,13,30,15.20
2013,04,01,13,31,15.20
2013,04,01,13,32,15.30
2013,04,01,13,33,15.40
2013,04,01,13,34,15.40
2013,04,01,13,35,15.40
2013,04,01,13,36,15.40
2013,04,01,13,37,15.40
2013,04,01,13,38,15.50
2013,04,01,13,39,15.50
2013,04,01,13,40,15.50
2013,04,01,13,41,15.50
2013,04,01,13,42,15.40
2013,04,01,13,43,15.50
2013,04,01,13,44,15.50
2013,04,01,13,45,15.60
2013,04,01,13,46,15.60
2013,04,01,13,47,15.70
2013,04,01,13,48,15.70
2013,04,01,13,49,15.70
2013,04,01,13,50,15.80
2013,04,01,13,51,15.80
2013,04,01,13,52,15.80
2013,04,01,13,53,15.80
2013,04,01,13,54,15.80
2013,04,01,13,55,15.80
2013,04,01,13,56,15.70
2013,04,01,13,57,15.70
2013,04,01,13,58,15.70
2013,04,01,13,59,15.80
2013,04,01,14,00,15.80
2013,04,01,14,01,15.80
2013,04,01,14,02,15.80
2013,04,01,14,03,15.80
2013,04,01,14,04,15.80
2013,04,01,14,05,15.80
2013,04,01,14,06,15.80
2013,04,01,14,07,15.80
2013,04,01,14,08,15.80
2013,04,01,14,09,15.80
2013,04,01,14,10,15.90
2013,04,01,14,11,15.80
2013,04,01,14,12,15.90
2013,04,01,14,13,15.90
2013,04,01,14,14,15.80
2013,04,01,14,15,15.80
2013,04,01,14,16,15.70
2013,04,01,14,17,15.70
2013,04,01,14,18,15.60
2013,04,01,14,19,15.50
2013,04,01,14,20,15.40
2013,04,01,14,21,15.40
2013,04,01,14,22,15.40
2013,04,01,14,23,15.30
2013,04,01,14,24,15.40
2013,04,01,14,25,15.40
2013,04,01,14,26,15.50
2013,04,01,14,27,15.50
2013,04,01,14,28,15.50
2013,04,01,14,29,15.60
2013,04,01,14,30,15.60
2013,04,01,14,31,15.60
2013,04,01,14,32,15.60
2013,04,01,14,33,15.60
2013,04,01,14,34,15.60
2013,04,01,14,35,15.60
2013,04,01,14,36,15.50
2013,04,01,14,37,15.50
2013,04,01,14,38,15.40
2013,04,01,14,39,15.40
2013,04,01,14,40,15.30
2013,04,01,14,41,15.30
2013,04,01,14,42,15.20
2013,04,01,14,43,15.20
2013,04,01,14,44,15.20
2013,04,01,14,45,15.20
2013,04,01,14,46,15.20
2013,04,01,14,47,15.20
2013,04,01,14,48,15.20
2013,04,01,14,49,15.20
2013,04,01,14,50,15.10
2013,04,01,14,51,15.00
2013,04,01,14,52,15.00
2013,04,01,14,53,15.00
2013,04,01,14,54,15.00
2013,04,01,14,55,15.00
2013,04,01,14,56,15.00
2013,04,01,14,57,15.00
2013,04,01,14,58,15.00
2013,04,01,14,59,15.00
2013,04,01,15,00,15.00
2013,04,01,15,01,14.90
2013,04,01,15,02,14.90
2013,04,01,15,03,14.80
2013,04,01,15,04,14.70
2013,04,01,15,05,14.70
2013,04,01,15,06,14.70
2013,04,01,15,07,14.60
2013,04,01,15,08,14.60
2013,04,01,15,09,14.50
2013,04,01,15,10,14.50
2013,04,01,15,11,14.40
2013,04,01,15,12,14.40
2013,04,01,15,13,14.30
2013,04,01,15,14,14.20
2013,04,01,15,15,14.10
2013,04,01,15,16,14.10
2013,04,01,15,17,14.00
2013,04,01,15,18,13.90
2013,04,01,15,19,13.80
2013,04,01,15,20,13.70
2013,04,01,15,21,13.50
2013,04,01,15,22,13.40
2013,04,01,15,23,13.30
2013,04,01,15,24,13.30
2013,04,01,15,25,13.20
2013,04,01,15,26,13.10
2013,04,01,15,27,13.10
2013,04,01,15,28,13.00
2013,04,01,15,29,13.00
2013,04,01,15,30,12.90
2013,04,01,15,31,12.90
2013,04,01,15,32,12.80
2013,04,01,15,33,12.80
2013,04,01,15,34,12.80
2013,04,01,15,35,12.80
2013,04,01,15,36,12.80
2013,04,01,15,37,12.80
2013,04,01,15,38,12.80
2013,04,01,15,39,12.90
2013,04,01,15,40,12.90
2013,04,01,15,41,12.90
2013,04,01,15,42,12.90
2013,04,01,15,43,12.90
2013,04,01,15,44,13.00
2013,04,01,15,45,13.00
2013,04,01,15,46,13.00
2013,04,01,15,47,13.10
2013,04,01,15,48,13.10
2013,04,01,15,49,13.10
2013,04,01,15,50,13.10
2013,04,01,15,51,13.10
2013,04,01,15,52,13.10
2013,04,01,15,53,13.10
2013,04,01,15,54,13.10
2013,04,01,15,55,13.20
2013,04,01,15,56,13.20
2013,04,01,15,57,13.20
2013,04,01,15,58,13.20
2013,04,01,15,59,13.20
2013,04,01,16,00,13.20
2013,04,01,16,01,13.20
2013,04,01,16,02,13.20
2013,04,01,16,03,13.20
2013,04,01,16,04,13.20
2013,04,01,16,05,13.30
2013,04,01,16,06,13.30
2013,04,01,16,07,13.30
2013,04,01,16,08,13.30
2013,04,01,16,09,13.30
2013,04,01,16,10,13.30
2013,04,01,16,11,13.30
2013,04,01,16,12,13.30
2013,04,01,16,13,13.30
2013,04,01,16,14,13.40
2013,04,01,16,15,13.40
2013,04,01,16,16,13.40
2013,04,01,16,17,13.40
2013,04,01,16,18,13.40
2013,04,01,16,19,13.40
2013,04,01,16,20,13.50
2013,04,01,16,21,13.50
2013,04,01,16,22,13.50
2013,04,01,16,23,13.50
2013,04,01,16,24,13.50
2013,04,01,16,25,13.50
2013,04,01,16,26,13.50
2013,04,01,16,27,13.50
2013,04,01,16,28,13.50
2013,04,01,16,29,13.60
2013,04,01,16,30,13.60
2013,04,01,16,31,13.60
2013,04,01,16,32,13.60
2013,04,01,16,33,13.60
2013,04,01,16,34,13.70
2013,04,01,16,35,13.70
2013,04,01,16,36,13.70
2013,04,01,16,37,13.70
2013,04,01,16,38,13.70
2013,04,01,16,39,13.80
2013,04,01,16,40,13.80
2013,04,01,16,41,13.80
2013,04,01,16,42,13.80
2013,04,01,16,43,13.80
2013,04,01,16,44,13.90
2013,04,01,16,45,13.90
2013,04,01,16,46,13.90
2013,04,01,16,47,13.90
2013,04,01,16,48,13.90
2013,04,01,16,49,13.90
2013,04,01,16,50,13.90
2013,04,01,16,51,14.00
2013,04,01,16,52,14.00
2013,04,01,16,53,14.00
2013,04,01,16,54,14.10
2013,04,01,16,55,14.10
2013,04,01,16,56,14.10
2013,04,01,16,57,14.10
2013,04,01,16,58,14.10
2013,04,01,16,59,14.20
2013,04,01,17,00,14.20
2013,04,01,17,01,14.20
2013,04,01,17,02,14.20
2013,04,01,17,03,14.20
2013,04,01,17,04,14.30
2013,04,01,17,05,14.30
2013,04,01,17,06,14.30
2013,04,01,17,07,14.30
2013,04,01,17,08,14.40
2013,04,01,17,09,14.40
2013,04,01,17,10,14.40
2013,04,01,17,11,14.40
2013,04,01,17,12,14.50
2013,04,01,17,13,14.50
2013,04,01,17,14,14.50
2013,04,01,17,15,14.60
2013,04,01,17,16,14.60
2013,04,01,17,17,14.60
2013,04,01,17,18,14.60
2013,04,01,17,19,14.70
2013,04,01,17,20,14.70
2013,04,01,17,21,14.70
2013,04,01,17,22,14.70
2013,04,01,17,23,14.70
2013,04,01,17,24,14.70
2013,04,01,17,25,14.70
2013,04,01,17,26,14.70
2013,04,01,17,27,14.70
2013,04,01,17,28,14.70
2013,04,01,17,29,14.70
2013,04,01,17,30,14.70
2013,04,01,17,31,14.70
2013,04,01,17,32,14.70
2013,04,01,17,33,14.70
2013,04,01,17,34,14.70
2013,04,01,17,35,14.70
2013,04,01,17,36,14.70
2013,04,01,17,37,14.70
2013,04,01,17,38,14.70
2013,04,01,17,39,14.70
2013,04,01,17,40,14.70
2013,04,01,17,41,14.70
2013,04,01,17,42,14.70
2013,04,01,17,43,14.70
2013,04,01,17,44,14.70